EW3244 Weather Reports


Display with metric or nautical units.
time (UTC)temp
F
wind
direction
speed
MPH
gust
MPH
rain 1hr
in
rain 24hr
in
rain mn
in
humidity
%
barometer
mb
20220926124611 57 294 0.0 3.0 0.00 0.06 0.02 78 996.7
20220926123056 56 303 0.0 2.0 0.00 0.06 0.02 80 996.8
20220926121556 55 295 0.0 1.0 0.00 0.06 0.02 81 996.9
20220926120106 55 267 0.0 4.0 0.00 0.06 0.02 82 997.0
20220926114603 54 281 2.0 4.0 0.00 0.06 0.02 82 997.1
20220926113051 54 266 1.0 4.0 0.00 0.06 0.02 82 997.1
20220926111550 54 287 3.0 7.0 0.00 0.06 0.02 81 997.2
20220926110102 54 281 1.0 6.0 0.00 0.06 0.02 83 997.2
20220926104606 54 281 0.0 3.0 0.00 0.06 0.02 85 997.3
20220926103042 53 285 1.0 4.0 0.00 0.06 0.02 86 997.5
20220926101547 52 296 3.0 8.0 0.00 0.06 0.02 87 997.6
20220926100041 53 298 1.0 9.0 0.00 0.06 0.02 87 997.5
20220926094549 52 291 1.0 6.0 0.00 0.06 0.02 87 997.4
20220926093036 52 285 2.0 9.0 0.00 0.06 0.02 90 997.6
20220926091536 52 294 2.0 6.0 0.00 0.06 0.02 92 997.7
20220926090031 51 280 3.0 7.0 0.00 0.06 0.02 92 997.7
20220926084629 51 293 3.0 6.0 0.00 0.06 0.02 92 997.7
20220926083031 51 271 2.0 6.0 0.00 0.06 0.02 93 997.7
20220926081541 51 274 1.0 5.0 0.00 0.06 0.02 94 997.6
20220926080034 50 281 1.0 3.0 0.00 0.06 0.02 95 997.5
20220926074524 50 290 1.0 4.0 0.00 0.06 0.02 96 997.6
20220926073044 50 275 1.0 5.0 0.00 0.06 0.02 96 997.6
20220926071521 49 279 2.0 6.0 0.00 0.06 0.02 96 997.6
20220926070021 49 269 1.0 6.0 0.00 0.06 0.02 97 997.6
20220926064520 49 280 1.0 6.0 0.00 0.06 0.02 97 997.5
20220926063019 48 275 0.0 3.0 0.00 0.06 0.02 97 997.5
20220926061521 48 276 1.0 2.0 0.00 0.06 0.02 97 997.5
20220926060020 48 272 0.0 2.0 0.00 0.06 0.02 97 997.6
20220926054515 48 266 0.0 2.0 0.00 0.06 0.02 97 997.8
20220926053014 48 276 0.0 2.0 0.00 0.06 0.02 97 997.9
20220926051535 47 270 0.0 2.0 0.00 0.06 0.02 96 998.0
20220926050021 48 271 0.0 2.0 0.00 0.06 0.02 96 998.1
20220926044517 48 275 1.0 4.0 0.00 0.06 0.02 96 998.2
20220926043007 48 274 0.0 3.0 0.00 0.06 0.02 96 998.3
20220926041508 48 277 0.0 3.0 0.00 0.06 0.02 96 998.5
20220926040015 48 279 1.0 4.0 0.00 0.06 0.02 96 998.6
20220926034519 48 272 1.0 4.0 0.00 0.06 0.02 96 998.8
20220926033001 48 281 1.0 4.0 0.00 0.06 0.02 96 999.0
20220926031610 48 272 0.0 2.0 0.00 0.06 0.02 96 999.0
20220926030126 48 277 1.0 4.0 0.00 0.06 0.02 96 999.1
20220926024602 48 281 1.0 4.0 0.00 0.06 0.02 96 999.2
20220926023148 48 277 0.0 4.0 0.00 0.06 0.02 96 999.4
20220926021558 48 301 1.0 4.0 0.00 0.06 0.02 96 999.6
20220926020103 48 275 2.0 6.0 0.00 0.06 0.02 96 999.6
20220926014550 48 272 1.0 4.0 0.00 0.06 0.02 96 999.7
20220926013047 48 277 1.0 4.0 0.00 0.06 0.02 96 999.8
20220926011545 48 273 1.0 3.0 0.00 0.06 0.02 96 1000.0
20220926010041 48 277 0.0 3.0 0.00 0.06 0.02 96 1000.0
20220926004539 48 274 1.0 4.0 0.00 0.06 0.02 96 1000.4
20220926003046 48 275 2.0 4.0 0.00 0.06 0.02 96 1000.5
20220926001535 49 284 0.0 7.0 0.00 0.06 0.02 96 1000.7
20220926000033 49 279 1.0 5.0 0.01 0.06 0.02 96 1000.9
20220925234529 49 269 0.0 4.0 0.01 0.06 0.02 96 1001.1
20220925233033 49 275 1.0 4.0 0.02 0.06 0.02 95 1001.2
20220925231527 49 279 1.0 4.0 0.02 0.06 0.02 95 1001.4
20220925230022 49 281 1.0 4.0 0.01 0.05 0.01 95 1001.7
20220925224542 50 284 2.0 5.0 0.01 0.05 0.01 95 1001.8
20220925220008 50 275 1.0 3.0 0.00 0.04 0.04 95 1002.3
20220925214505 50 287 2.0 4.0 0.01 0.04 0.04 95 1002.6
20220925213003 50 286 2.0 6.0 0.01 0.04 0.04 95 1002.7
20220925211501 49 289 1.0 7.0 0.01 0.04 0.04 95 1002.8
20220925210059 49 272 2.0 5.0 0.01 0.04 0.04 95 1003.1
20220925204557 49 275 1.0 7.0 0.00 0.03 0.03 95 1003.3
20220925203056 49 268 0.0 4.0 0.00 0.03 0.03 95 1003.3
20220925201554 50 276 1.0 4.0 0.00 0.03 0.03 94 1003.5
20220925200053 50 279 1.0 5.0 0.00 0.03 0.03 94 1003.7
20220925194600 50 268 1.0 4.0 0.00 0.03 0.03 94 1003.7
20220925193051 50 276 1.0 4.0 0.01 0.03 0.03 94 1003.8
20220925191553 50 273 1.0 4.0 0.01 0.03 0.03 94 1004.0
20220925190102 51 276 1.0 5.0 0.01 0.03 0.03 93 1004.3
20220925184546 51 289 2.0 4.0 0.01 0.03 0.03 93 1004.4
20220925183046 51 272 1.0 6.0 0.00 0.02 0.02 94 1004.5
20220925181553 51 284 0.0 2.0 0.00 0.02 0.02 94 1004.6
20220925180050 52 279 0.0 3.0 0.00 0.02 0.02 94 1004.6
20220925174539 52 289 0.0 0.0 0.01 0.02 0.02 94 1004.9
20220925173039 52 277 0.0 0.0 0.01 0.02 0.02 94 1005.0
20220925171537 52 276 0.0 0.0 0.01 0.02 0.02 94 1005.1
20220925170042 52 276 0.0 0.0 0.01 0.02 0.02 93 1005.2
20220925164534 53 276 0.0 0.0 0.01 0.02 0.02 93 1005.4
20220925163035 53 276 0.0 1.0 0.02 0.02 0.02 91 1005.5
20220925161540 53 276 0.0 1.0 0.02 0.02 0.02 89 1005.5
20220925160032 54 276 0.0 2.0 0.02 0.02 0.02 87 1005.7
20220925154535 55 294 1.0 8.0 0.01 0.01 0.01 86 1006.1
20220925153037 56 281 0.0 4.0 0.00 0.00 0.00 82 1006.1
20220925151534 57 274 1.0 3.0 0.00 0.00 0.00 80 1006.1
20220925150026 57 271 1.0 3.0 0.00 0.00 0.00 77 1006.2
20220925144524 58 282 1.0 6.0 0.00 0.00 0.00 76 1006.3
20220925143022 58 276 3.0 7.0 0.00 0.00 0.00 76 1006.5
20220925141527 58 268 1.0 3.0 0.00 0.00 0.00 80 1006.7
20220925140032 58 266 1.0 3.0 0.00 0.00 0.00 81 1007.1
20220925134538 58 278 2.0 4.0 0.00 0.00 0.00 77 1007.2
20220925133016 59 281 3.0 7.0 0.00 0.00 0.00 69 1007.3
20220925131511 60 279 2.0 5.0 0.00 0.00 0.00 75 1007.5
20220925130009 60 268 2.0 7.0 0.00 0.00 0.00 75 1007.6